TimeEET,TemperatureF,Dew PointF,Humidity,Sea Level PressureIn,VisibilityMPH,Wind Direction,Wind SpeedMPH,Gust SpeedMPH,PrecipitationIn,Events,Conditions,WindDirDegrees,DateUTC
12:20 AM,19.4,19.4,100,30.12,0.2,Calm,Calm,-,N/A,Fog,Light Freezing Fog,0,2012-12-12 22:20:00
12:50 AM,17.6,17.6,100,30.12,0.2,Calm,Calm,-,N/A,Fog,Light Freezing Fog,0,2012-12-12 22:50:00
1:20 AM,17.6,17.6,100,30.12,0.2,Variable,2.3,-,N/A,Fog,Light Freezing Fog,0,2012-12-12 23:20:00
1:50 AM,17.6,17.6,100,30.12,0.2,Variable,1.2,-,N/A,Fog,Light Freezing Fog,0,2012-12-12 23:50:00
2:00 AM,18,18,99,,0,SSE,1.2,,,Fog,Heavy Fog,150,2012-12-13 00:00:00
2:20 AM,15.8,14.0,93,30.12,0.2,Variable,2.3,-,N/A,Fog,Light Freezing Fog,0,2012-12-13 00:20:00
2:50 AM,15.8,14.0,93,30.12,0.2,Variable,2.3,-,N/A,Fog,Light Freezing Fog,0,2012-12-13 00:50:00
3:20 AM,14.0,12.2,93,30.09,0.2,Variable,1.2,-,N/A,Fog,Light Freezing Fog,0,2012-12-13 01:20:00
3:50 AM,14.0,12.2,93,30.09,0.2,Variable,2.3,-,N/A,Fog,Light Freezing Fog,0,2012-12-13 01:50:00
4:20 AM,12.2,12.2,100,30.09,0.2,Variable,2.3,-,N/A,Fog,Light Freezing Fog,0,2012-12-13 02:20:00
4:50 AM,12.2,12.2,100,30.09,0.4,Variable,2.3,-,N/A,Fog,Light Freezing Fog,0,2012-12-13 02:50:00
5:20 AM,14.0,12.2,93,30.09,0.5,WSW,2.3,-,N/A,Fog,Light Freezing Fog,250,2012-12-13 03:20:00
5:50 AM,12.2,10.4,92,30.09,1.0,Calm,Calm,-,N/A,,Partly Cloudy,0,2012-12-13 03:50:00
6:20 AM,10.4,8.6,92,30.09,1.0,Calm,Calm,-,N/A,,Partly Cloudy,0,2012-12-13 04:20:00
6:50 AM,12.2,10.4,92,30.09,1.0,Variable,2.3,-,N/A,,Mist,0,2012-12-13 04:50:00
7:20 AM,12.2,12.2,100,30.09,1.2,WSW,1.2,-,N/A,,Mist,240,2012-12-13 05:20:00
7:50 AM,15.8,14.0,93,30.09,1.2,Variable,2.3,-,N/A,,Mist,0,2012-12-13 05:50:00
8:00 AM,15,15,99,,1,SSW,2.3,,,,Mist,200,2012-12-13 06:00:00
8:20 AM,21.2,21.2,100,30.09,2.2,Variable,2.3,-,N/A,,Mist,0,2012-12-13 06:20:00
8:50 AM,23.0,21.2,93,30.09,2.8,Variable,1.2,-,N/A,,Mist,0,2012-12-13 06:50:00
9:20 AM,23.0,23.0,100,30.09,-9999.0,Calm,Calm,-,N/A,,Mist,0,2012-12-13 07:20:00
9:50 AM,23.0,23.0,100,30.09,3.7,Calm,Calm,-,N/A,,Unknown,0,2012-12-13 07:50:00
10:20 AM,24.8,24.8,100,30.09,4.3,East,6.9,-,N/A,,Unknown,100,2012-12-13 08:20:00
10:50 AM,24.8,23.0,93,30.06,5.0,East,10.4,-,N/A,,Unknown,90,2012-12-13 08:50:00
11:20 AM,24.8,23.0,93,30.06,5.0,East,12.7,-,N/A,,Unknown,90,2012-12-13 09:20:00
11:50 AM,24.8,23.0,93,30.04,5.0,East,10.4,-,N/A,,Scattered Clouds,80,2012-12-13 09:50:00
12:20 PM,24.8,23.0,93,30.04,5.0,East,10.4,-,N/A,,Scattered Clouds,80,2012-12-13 10:20:00
12:50 PM,24.8,23.0,93,30.04,5.0,East,17.3,-,N/A,,Scattered Clouds,80,2012-12-13 10:50:00
1:20 PM,24.8,23.0,93,30.04,5.0,East,16.1,-,N/A,,Mostly Cloudy,90,2012-12-13 11:20:00
1:50 PM,24.8,23.0,93,30.04,5.0,East,16.1,-,N/A,,Mostly Cloudy,80,2012-12-13 11:50:00
2:00 PM,25,23,87,,12,East,16.1,,,,Partly Cloudy,80,2012-12-13 12:00:00
2:20 PM,24.8,23.0,93,30.04,5.0,East,15.0,-,N/A,,Mostly Cloudy,80,2012-12-13 12:20:00
2:50 PM,24.8,21.2,86,30.04,5.0,East,16.1,-,N/A,,Mostly Cloudy,80,2012-12-13 12:50:00
3:20 PM,23.0,21.2,93,30.04,5.0,East,13.8,-,N/A,,Mostly Cloudy,90,2012-12-13 13:20:00
3:50 PM,23.0,21.2,93,30.04,5.0,East,13.8,-,N/A,,Mostly Cloudy,90,2012-12-13 13:50:00
4:20 PM,23.0,21.2,93,30.04,5.0,East,11.5,-,N/A,,Mostly Cloudy,80,2012-12-13 14:20:00
4:50 PM,21.2,19.4,93,30.06,5.0,ESE,5.8,-,N/A,,Mostly Cloudy,120,2012-12-13 14:50:00
5:20 PM,19.4,17.6,93,30.06,5.0,SSE,2.3,-,N/A,,Mostly Cloudy,150,2012-12-13 15:20:00
5:50 PM,17.6,15.8,93,30.06,5.0,Variable,2.3,-,N/A,,Mostly Cloudy,0,2012-12-13 15:50:00
6:20 PM,15.8,15.8,100,30.06,5.0,Calm,Calm,-,N/A,,Mostly Cloudy,0,2012-12-13 16:20:00
6:50 PM,17.6,17.6,100,30.06,5.0,Variable,1.2,-,N/A,,Mostly Cloudy,0,2012-12-13 16:50:00
7:20 PM,17.6,17.6,100,30.06,5.0,South,2.3,-,N/A,,Mostly Cloudy,190,2012-12-13 17:20:00
7:50 PM,17.6,17.6,100,30.06,4.3,Variable,1.2,-,N/A,,Mostly Cloudy,0,2012-12-13 17:50:00
8:00 PM,18,18,100,,4,SW,1.2,,,,Mist,220,2012-12-13 18:00:00
8:20 PM,17.6,17.6,100,30.06,4.3,Calm,Calm,-,N/A,,Mostly Cloudy,0,2012-12-13 18:20:00
8:50 PM,19.4,17.6,93,30.06,4.3,Calm,Calm,-,N/A,,Mostly Cloudy,0,2012-12-13 18:50:00
9:20 PM,19.4,19.4,100,30.06,4.3,Calm,Calm,-,N/A,,Mostly Cloudy,0,2012-12-13 19:20:00
9:50 PM,21.2,19.4,93,30.06,4.3,Variable,1.2,-,N/A,,Mostly Cloudy,0,2012-12-13 19:50:00
10:20 PM,21.2,19.4,93,30.06,4.3,Variable,2.3,-,N/A,,Mostly Cloudy,0,2012-12-13 20:20:00
10:50 PM,21.2,19.4,93,30.06,4.3,Calm,Calm,-,N/A,,Mostly Cloudy,0,2012-12-13 20:50:00
11:20 PM,21.2,19.4,93,30.06,4.3,Variable,2.3,-,N/A,,Mostly Cloudy,0,2012-12-13 21:20:00
11:50 PM,21.2,19.4,93,30.06,4.3,SSW,3.5,-,N/A,,Mostly Cloudy,210,2012-12-13 21:50:00